User: anonymous   Login
Location: �perlecques
(50.8057°N, 2.1521°E)
Time: 02:43:50
(UTC+00:00)
Language:

Meteor 2-2 Rocket - Orbit

View from above orbital plane
View from above orbital plane
View from above satellite
View from above satellite

Ground track
Ground track

The orbit data is extracted from the following two-line orbital elements,

1  9662U 77002B   20192.41233119 +.00000018 +00000-0 +38764-5 0  9999
2  9662 081.2754 084.3255 0051872 188.2115 171.8208 14.00940617223071
Epoch (UTC): 10 July 2020 09:53:45
Eccentricity: 0.0051872
inclination: 81.2754°
perigee height: 853 km
apogee height: 928 km
right ascension of ascending node: 84.3255°
argument of perigee: 188.2115°
revolutions per day: 14.00940617
mean anomaly at epoch: 171.8208°
orbit number at epoch: 22307

The dashed part of the orbit path shows where the satellite is in the earth's shadow,  

DLR